SCP
0 0 0 0 0 0 0 0 0 0 0 0 0 0 0 0 0 0 0 0 0 0
0 0 0 0 0 0 0 0 0 0 0 0 0 0 0 0 0 0 0 0 0 0
0 0 0 0 0 0 0 0 0 0 0 0 0 0 0 0 0 0 0 0 0 0
0 0 0 0 0 0 0 0 0 0 0 0 0 0 0 0 0 0 0 0 0 0
0 0 0 0 0 0 0 0 0 0 0 0 0 0 0 0 0 0 0 0 0 0
0 0 0 0 0 0 0 0 0 0 0 0 0 0 0 0 0 0 0 0 0 0
0 0 0 0 0 0 0 0 0 0 0 0 0 0 0 0 0 0 0 0 0 0
0 0 0 0 0 0 0 0 0 0 0 0 0 0 0 0 0 0 0 0 0 0
0 0 0 0 0 0 0 0 0 0 0 0 0 0 0 0 0 0 0 0 0 0
0 0 0 0 0 0 0 0 0 0 0 0 0 0 0 0 0 0 0 0 0 0
0 0 0 0 0 0 0 0 0 0 0 0 0 0 0 0 0 0 0 0 0 0
0 0 0 0 0 0 0 0 0 0 0 0 0 0 0 -0 0 0 0 0 0 0
0 0 0 0 0 0 0 0 0 0 0 0 0 0 0 0 0 0 0 0 0 0
0 0 0 0 0 0 0 0 0 0 0 0 0 0 0 0 0 0 0 0 0 0
Wind_Speed_500mb
52 48 42 41 34 27 22 21 19 10 3 9 16 20 22 14 12 13 9 13 15 16
60 51 42 42 40 29 28 23 18 11 6 9 14 22 21 12 11 11 11 13 17 17
61 60 49 50 44 35 30 25 20 13 11 13 19 20 21 10 13 11 10 12 17 18
61 63 56 55 50 38 34 28 19 12 10 9 14 15 12 10 9 10 12 13 15 18
53 53 54 51 44 37 31 27 20 13 4 6 10 10 7 6 7 9 10 13 15 19
56 56 53 48 44 41 35 29 20 13 8 15 8 6 7 6 8 10 13 15 16 18
62 59 56 56 49 38 32 30 18 13 13 14 3 2 4 6 9 10 12 12 12 13
60 57 61 59 53 38 39 34 19 11 7 5 5 3 4 7 8 8 9 10 11 9
64 69 67 60 41 44 43 31 17 12 6 8 10 3 5 6 6 8 8 8 11 12
70 69 68 61 52 49 42 28 18 11 18 14 5 2 6 6 6 6 7 11 11 11
73 74 74 62 58 49 37 25 15 21 19 16 6 4 5 5 7 3 7 9 9 13
77 79 72 62 59 51 37 27 26 25 22 19 9 8 9 13 6 0 4 4 6 12
75 73 69 67 60 47 34 30 28 26 22 20 12 12 9 12 6 2 1 6 13 22
71 73 68 68 53 44 38 34 31 28 22 20 17 11 10 12 11 3 3 5 10 14
Wind_Direction_500mb
217 211 202 199 189 185 191 191 199 186 235 343 345 340 346 347 344 333 331 336 336 340
213 207 195 194 196 191 191 197 193 201 254 311 334 341 356 329 338 341 344 338 329 340
210 208 198 201 198 196 193 189 199 214 269 299 326 343 1 347 327 334 333 336 327 331
204 203 203 205 198 197 203 204 210 229 265 302 336 348 357 1 354 341 337 337 333 333
194 195 198 196 193 190 193 201 200 236 219 332 342 354 12 9 351 348 337 331 336 330
189 192 191 186 191 197 202 208 215 245 277 314 316 2 4 11 354 344 328 327 336 340
189 186 185 195 199 200 219 218 218 248 282 301 299 356 49 0 343 334 318 334 345 355
182 184 194 195 195 224 208 216 226 229 267 203 132 131 6 3 358 4 357 7 20 360
180 192 196 195 218 211 207 207 207 201 190 159 171 332 5 61 55 59 45 28 16 18
188 194 197 203 204 202 196 188 202 201 155 160 216 59 63 80 102 72 35 35 28 27
189 195 200 200 199 193 196 190 188 166 160 158 179 122 100 113 105 54 59 42 31 17
190 197 199 200 194 188 181 172 158 162 161 159 174 168 132 106 105 318 72 30 9 15
197 198 199 196 189 178 167 160 158 157 158 165 170 167 143 119 145 121 88 11 331 333
196 197 198 189 174 175 157 159 158 154 160 157 164 168 150 138 127 164 23 345 332 297
Wind_Speed_850mb
52 48 42 41 34 27 22 21 19 10 3 9 16 20 22 14 12 13 9 13 15 16
60 51 42 42 40 29 28 23 18 11 6 9 14 22 21 12 11 11 11 13 17 17
61 60 49 50 44 35 30 25 20 13 11 13 19 20 21 10 13 11 10 12 17 18
61 63 56 55 50 38 34 28 19 12 10 9 14 15 12 10 9 10 12 13 15 18
53 53 54 51 44 37 31 27 20 13 4 6 10 10 7 6 7 9 10 13 15 19
56 56 53 48 44 41 35 29 20 13 8 15 8 6 7 6 8 10 13 15 16 18
62 59 56 56 49 38 32 30 18 13 13 14 3 2 4 6 9 10 12 12 12 13
60 57 61 59 53 38 39 34 19 11 7 5 5 3 4 7 8 8 9 10 11 9
64 69 67 60 41 44 43 31 17 12 6 8 10 3 5 6 6 8 8 8 11 12
70 69 68 61 52 49 42 28 18 11 18 14 5 2 6 6 6 6 7 11 11 11
73 74 74 62 58 49 37 25 15 21 19 16 6 4 5 5 7 3 7 9 9 13
77 79 72 62 59 51 37 27 26 25 22 19 9 8 9 13 6 0 4 4 6 12
75 73 69 67 60 47 34 30 28 26 22 20 12 12 9 12 6 2 1 6 13 22
71 73 68 68 53 44 38 34 31 28 22 20 17 11 10 12 11 3 3 5 10 14
Wind_Direction_850mb
217 211 202 199 189 185 191 191 199 186 235 343 345 340 346 347 344 333 331 336 336 340
213 207 195 194 196 191 191 197 193 201 254 311 334 341 356 329 338 341 344 338 329 340
210 208 198 201 198 196 193 189 199 214 269 299 326 343 1 347 327 334 333 336 327 331
204 203 203 205 198 197 203 204 210 229 265 302 336 348 357 1 354 341 337 337 333 333
194 195 198 196 193 190 193 201 200 236 219 332 342 354 12 9 351 348 337 331 336 330
189 192 191 186 191 197 202 208 215 245 277 314 316 2 4 11 354 344 328 327 336 340
189 186 185 195 199 200 219 218 218 248 282 301 299 356 49 0 343 334 318 334 345 355
182 184 194 195 195 224 208 216 226 229 267 203 132 131 6 3 358 4 357 7 20 360
180 192 196 195 218 211 207 207 207 201 190 159 171 332 5 61 55 59 45 28 16 18
188 194 197 203 204 202 196 188 202 201 155 160 216 59 63 80 102 72 35 35 28 27
189 195 200 200 199 193 196 190 188 166 160 158 179 122 100 113 105 54 59 42 31 17
190 197 199 200 194 188 181 172 158 162 161 159 174 168 132 106 105 318 72 30 9 15
197 198 199 196 189 178 167 160 158 157 158 165 170 167 143 119 145 121 88 11 331 333
196 197 198 189 174 175 157 159 158 154 160 157 164 168 150 138 127 164 23 345 332 297